User: anonymous   Login
Location: Unspecified
(0.0000°N, 0.0000°E)
Time: 10:49:00
(UTC+00:00)
Language:

GLOBAL-2 - Orbit

View from above orbital plane
View from above orbital plane
View from above satellite
View from above satellite

Ground track
Ground track

The orbit data is extracted from the following two-line orbital elements,

1 43812U 18099BG  19112.20392451  .00000366  00000-0  38394-4 0  9991
2 43812  97.7458 184.8964 0014359 156.6011 203.5866 14.95368929 20426
Epoch (UTC): 22 April 2019 04:53:39
Eccentricity: 0.0014359
inclination: 97.7458°
perigee height: 571 km
apogee height: 591 km
right ascension of ascending node: 184.8964°
argument of perigee: 156.6011°
revolutions per day: 14.95368929
mean anomaly at epoch: 203.5866°
orbit number at epoch: 2042

The dashed part of the orbit path shows where the satellite is in the earth's shadow,  

DLR